Danbury, CT

7:22 PM EDT on April 21, 2018 (GMT -0400)
Danbury Municipal

Weather History for KDXR - January, 2013

Change the Weather History Date:

Sunday, January 27, 2013

  Actual Average Record
Temperature  
Mean Temperature 18 °F -  
Max Temperature 30 °F 36 °F 63 °F (1950)
Min Temperature 6 °F 19 °F -1 °F (1982)
Degree Days  
Heating Degree Days 47    
Moisture  
Dew Point 6 °F    
Average Humidity 61    
Maximum Humidity 87    
Minimum Humidity 27    
Precipitation  
Precipitation 0.00 in - - ()
Sea Level Pressure  
Sea Level Pressure 30.46 in    
Wind  
Wind Speed 3 mph (NW)    
Max Wind Speed 10 mph    
Max Gust Speed 20 mph    
Visibility 10 miles    
Events      
Averages and records for this station are not official NWS values.
T = Trace of Precipitation, MM = Missing Value Source: NWS Daily Summary

Daily Weather History Graph

Daily Weather History Graph

Search for Another Location

Airport or City:

Astronomy

Jan. 27, 2013 Rise Set
Actual Time 7:09 AM EST 5:04 PM EST
Civil Twilight 6:40 AM EST 5:33 PM EST
Nautical Twilight 6:06 AM EST 6:07 PM EST
Astronomical Twilight 5:34 AM EST 6:39 PM EST
Moon 5:56 PM EST (1/27) 7:00 AM EST (1/27)
Length of Visible Light 10h 53m
Length of Day
9h 54m
Full, 100% of the Moon is Illuminated
Jan 27
Full
Feb 3
Last Quarter
Feb 10
New
Feb 17
First Quarter
Feb 25
Full

Hourly Weather History & Observations

Time (EST) Temp. Windchill Dew Point Humidity Pressure Visibility Wind Dir Wind Speed Gust Speed Precip Events Conditions
12:53 AM 12.9 °F - 3.0 °F 65% 30.35 in 10.0 mi Calm Calm - N/A   Clear
1:53 AM 8.1 °F -0.5 °F 3.0 °F 80% 30.37 in 10.0 mi SW 4.6 mph - N/A   Clear
2:53 AM 8.1 °F - 3.0 °F 80% 30.38 in 10.0 mi Calm Calm - N/A   Clear
3:53 AM 7.0 °F - 3.0 °F 84% 30.40 in 10.0 mi Calm Calm - N/A   Clear
4:53 AM 6.1 °F - 3.0 °F 87% 30.40 in 10.0 mi Calm Calm - N/A   Clear
5:53 AM 7.0 °F -1.7 °F 3.0 °F 84% 30.42 in 10.0 mi WSW 4.6 mph - N/A   Clear
6:53 AM 10.9 °F 2.9 °F 6.1 °F 81% 30.43 in 10.0 mi Variable 4.6 mph - N/A   Clear
7:53 AM 10.0 °F - 5.0 °F 80% 30.46 in 10.0 mi Calm Calm - N/A   Clear
8:53 AM 17.1 °F 10.0 °F 9.0 °F 71% 30.48 in 10.0 mi NW 4.6 mph - N/A   Clear
9:53 AM 21.0 °F 13.4 °F 9.0 °F 60% 30.49 in 10.0 mi NW 5.8 mph - N/A   Clear
10:53 AM 25.0 °F 15.5 °F 7.0 °F 46% 30.51 in 10.0 mi NW 9.2 mph - N/A   Clear
11:53 AM 27.0 °F 19.5 °F 5.0 °F 39% 30.50 in 10.0 mi NW 6.9 mph - N/A   Clear
12:53 PM 28.9 °F 20.4 °F 3.9 °F 35% 30.46 in 10.0 mi NNW 9.2 mph 19.6 mph N/A   Clear
1:53 PM 30.9 °F 22.8 °F 3.0 °F 31% 30.45 in 10.0 mi NNW 9.2 mph 17.3 mph N/A   Clear
2:53 PM 30.9 °F 22.2 °F -0.0 °F 27% 30.46 in 10.0 mi NW 10.4 mph - N/A   Clear
3:53 PM 30.9 °F 23.5 °F 1.0 °F 28% 30.46 in 10.0 mi NNW 8.1 mph - N/A   Clear
4:53 PM 30.0 °F 24.1 °F 1.9 °F 30% 30.49 in 10.0 mi NW 5.8 mph - N/A   Clear
5:53 PM 24.1 °F - 5.0 °F 44% 30.48 in 10.0 mi Calm Calm - N/A   Clear
6:53 PM 23.0 °F - 9.0 °F 55% 30.48 in 10.0 mi Calm Calm - N/A   Clear
7:53 PM 21.9 °F - 10.9 °F 63% 30.50 in 10.0 mi Calm Calm - N/A   Clear
8:53 PM 21.0 °F - 10.9 °F 65% 30.49 in 10.0 mi Calm Calm - N/A   Clear
9:53 PM 18.0 °F - 10.0 °F 71% 30.50 in 10.0 mi Calm Calm - N/A   Clear
10:53 PM 17.1 °F - 10.0 °F 74% 30.49 in 10.0 mi Calm Calm - N/A   Clear
11:53 PM 16.0 °F - 10.0 °F 77% 30.49 in 10.0 mi Calm Calm - N/A   Clear